TimeEDT,TemperatureF,Dew PointF,Humidity,Sea Level PressureIn,VisibilityMPH,Wind Direction,Wind SpeedMPH,Gust SpeedMPH,PrecipitationIn,Events,Conditions,WindDirDegrees,DateUTC
12:15 AM,72.9,59.9,64,30.00,10.0,South,5.8,-,N/A,,Clear,180,2013-05-30 04:15:00
12:35 AM,71.2,60.3,68,30.01,10.0,South,5.8,-,N/A,,Clear,180,2013-05-30 04:35:00
12:55 AM,72.0,59.4,64,30.01,10.0,South,4.6,-,N/A,,Clear,180,2013-05-30 04:55:00
1:14 AM,72.1,58.8,63,30.01,10.0,South,4.6,-,N/A,,Clear,190,2013-05-30 05:14:00
1:35 AM,72.9,58.3,60,30.01,10.0,South,6.9,-,N/A,,Clear,190,2013-05-30 05:35:00
1:55 AM,71.8,58.8,64,30.02,10.0,South,6.9,-,N/A,,Clear,180,2013-05-30 05:55:00
2:15 AM,71.6,58.5,63,30.02,10.0,South,5.8,-,N/A,,Clear,180,2013-05-30 06:15:00
2:35 AM,71.6,58.6,64,30.02,10.0,South,4.6,-,N/A,,Clear,190,2013-05-30 06:35:00
2:54 AM,71.8,58.6,63,30.03,10.0,South,5.8,-,N/A,,Clear,180,2013-05-30 06:54:00
3:15 AM,71.8,58.6,63,30.03,10.0,South,5.8,-,N/A,,Clear,190,2013-05-30 07:15:00
3:35 AM,71.1,59.0,66,30.02,10.0,South,4.6,-,N/A,,Clear,190,2013-05-30 07:35:00
3:54 AM,70.9,59.0,66,30.02,10.0,South,3.5,-,N/A,,Clear,190,2013-05-30 07:54:00
4:15 AM,70.7,59.2,67,30.02,10.0,South,5.8,-,N/A,,Clear,190,2013-05-30 08:15:00
4:35 AM,70.7,59.5,68,30.02,10.0,South,4.6,-,N/A,,Clear,190,2013-05-30 08:35:00
4:54 AM,70.7,59.5,68,30.02,10.0,South,5.8,-,N/A,,Clear,190,2013-05-30 08:54:00
5:15 AM,70.7,59.9,69,30.03,10.0,South,4.6,-,N/A,,Clear,190,2013-05-30 09:15:00
5:35 AM,70.3,59.9,69,30.03,10.0,South,8.1,-,N/A,,Clear,190,2013-05-30 09:35:00
5:55 AM,70.7,60.1,69,30.03,10.0,South,6.9,-,N/A,,Mostly Cloudy,190,2013-05-30 09:55:00
6:15 AM,70.9,60.3,69,30.04,10.0,South,6.9,-,N/A,,Overcast,190,2013-05-30 10:15:00
6:35 AM,70.5,60.4,70,30.04,10.0,South,5.8,-,N/A,,Scattered Clouds,190,2013-05-30 10:35:00
6:55 AM,70.0,60.8,73,30.04,10.0,South,5.8,-,N/A,,Clear,170,2013-05-30 10:55:00
7:15 AM,70.5,61.0,72,30.04,10.0,South,4.6,-,N/A,,Clear,180,2013-05-30 11:15:00
7:35 AM,70.7,61.2,72,30.04,10.0,South,5.8,-,N/A,,Clear,190,2013-05-30 11:35:00
7:55 AM,71.1,61.7,72,30.04,10.0,South,8.1,-,N/A,,Clear,180,2013-05-30 11:55:00
8:15 AM,71.8,61.7,70,30.05,10.0,South,6.9,-,N/A,,Clear,190,2013-05-30 12:15:00
8:35 AM,73.6,62.4,68,30.05,10.0,South,6.9,-,N/A,,Clear,190,2013-05-30 12:35:00
8:55 AM,74.3,62.6,67,30.05,10.0,South,8.1,-,N/A,,Clear,190,2013-05-30 12:55:00
9:15 AM,75.7,63.7,66,30.05,10.0,SSW,9.2,-,N/A,,Clear,200,2013-05-30 13:15:00
9:35 AM,77.2,64.4,65,30.05,10.0,SSW,6.9,-,N/A,,Scattered Clouds,200,2013-05-30 13:35:00
9:55 AM,77.9,64.9,64,30.05,10.0,SSW,10.4,18.4,N/A,,Clear,210,2013-05-30 13:55:00
10:15 AM,78.4,65.1,63,30.05,10.0,SSW,9.2,20.7,N/A,,Clear,210,2013-05-30 14:15:00
10:35 AM,79.0,65.8,64,30.04,10.0,SSW,16.1,26.5,N/A,,Scattered Clouds,210,2013-05-30 14:35:00
10:55 AM,79.9,65.7,62,30.04,10.0,SSW,9.2,16.1,N/A,,Scattered Clouds,200,2013-05-30 14:55:00
11:15 AM,79.0,65.8,64,30.04,10.0,SSW,13.8,21.9,N/A,,Scattered Clouds,200,2013-05-30 15:15:00
11:35 AM,79.5,65.3,62,30.04,10.0,SSW,17.3,23.0,N/A,,Scattered Clouds,210,2013-05-30 15:35:00
11:55 AM,80.4,66.0,61,30.04,10.0,SSW,11.5,19.6,N/A,,Scattered Clouds,200,2013-05-30 15:55:00
12:15 PM,81.7,65.3,57,30.04,10.0,South,12.7,21.9,N/A,,Mostly Cloudy,190,2013-05-30 16:15:00
12:35 PM,81.9,65.3,57,30.04,10.0,SSW,12.7,23.0,N/A,,Mostly Cloudy,200,2013-05-30 16:35:00
12:54 PM,82.0,64.8,56,30.03,10.0,SSW,13.8,20.7,N/A,,Scattered Clouds,200,2013-05-30 16:54:00
1:15 PM,82.6,63.7,53,30.03,10.0,SW,12.7,25.3,N/A,,Scattered Clouds,220,2013-05-30 17:15:00
1:35 PM,82.4,64.2,54,30.02,10.0,South,13.8,20.7,N/A,,Scattered Clouds,190,2013-05-30 17:35:00
1:55 PM,84.0,63.5,50,30.02,10.0,SSW,11.5,24.2,N/A,,Scattered Clouds,200,2013-05-30 17:55:00
2:15 PM,82.8,63.5,52,30.01,10.0,SSW,11.5,21.9,N/A,,Mostly Cloudy,200,2013-05-30 18:15:00
2:34 PM,82.2,63.3,53,30.01,10.0,SW,11.5,23.0,N/A,,Scattered Clouds,220,2013-05-30 18:34:00
2:55 PM,82.2,63.3,53,30.01,10.0,SSW,15.0,25.3,N/A,,Scattered Clouds,210,2013-05-30 18:55:00
3:15 PM,82.2,63.9,54,30.00,10.0,SSW,11.5,19.6,N/A,,Scattered Clouds,200,2013-05-30 19:15:00
3:35 PM,84.0,63.1,49,30.00,10.0,SSW,16.1,25.3,N/A,,Scattered Clouds,210,2013-05-30 19:35:00
3:55 PM,83.3,64.2,52,30.00,10.0,South,10.4,21.9,N/A,,Scattered Clouds,190,2013-05-30 19:55:00
4:14 PM,83.8,63.7,51,29.99,10.0,South,15.0,21.9,N/A,,Clear,180,2013-05-30 20:14:00
4:35 PM,83.3,64.0,52,29.98,10.0,South,10.4,17.3,N/A,,Clear,190,2013-05-30 20:35:00
4:55 PM,83.3,64.0,52,29.97,10.0,South,6.9,17.3,N/A,,Clear,190,2013-05-30 20:55:00
5:15 PM,82.4,64.0,54,29.96,10.0,South,9.2,16.1,N/A,,Scattered Clouds,180,2013-05-30 21:15:00
5:35 PM,82.8,63.9,53,29.96,10.0,South,12.7,19.6,N/A,,Clear,170,2013-05-30 21:35:00
5:55 PM,82.8,62.2,50,29.95,10.0,SSW,12.7,21.9,N/A,,Clear,200,2013-05-30 21:55:00
6:15 PM,81.5,62.2,52,29.96,10.0,SSW,9.2,19.6,N/A,,Scattered Clouds,200,2013-05-30 22:15:00
6:35 PM,80.8,62.8,54,29.96,10.0,SW,9.2,-,N/A,,Scattered Clouds,220,2013-05-30 22:35:00
6:55 PM,76.6,64.9,67,29.97,10.0,SSW,9.2,-,N/A,,Scattered Clouds,200,2013-05-30 22:55:00
7:15 PM,76.1,67.6,75,29.96,10.0,SSW,3.5,-,N/A,,Scattered Clouds,200,2013-05-30 23:15:00
7:35 PM,76.8,68.0,74,29.96,10.0,South,4.6,-,N/A,,Clear,170,2013-05-30 23:35:00
7:54 PM,78.6,68.2,70,29.95,10.0,SSE,3.5,-,N/A,,Clear,160,2013-05-30 23:54:00
8:15 PM,79.3,64.9,61,29.95,10.0,South,5.8,-,N/A,,Clear,180,2013-05-31 00:15:00
8:35 PM,78.1,63.5,61,29.96,10.0,South,5.8,-,N/A,,Clear,180,2013-05-31 00:35:00
8:54 PM,77.0,64.2,65,29.95,10.0,SSE,4.6,-,N/A,,Clear,160,2013-05-31 00:54:00
9:15 PM,75.9,64.8,68,29.97,10.0,South,3.5,-,N/A,,Clear,170,2013-05-31 01:15:00
9:35 PM,75.7,64.9,69,29.97,10.0,SSE,8.1,-,N/A,,Mostly Cloudy,160,2013-05-31 01:35:00
9:55 PM,75.9,64.6,68,29.98,10.0,SSE,9.2,-,N/A,,Scattered Clouds,160,2013-05-31 01:55:00
10:15 PM,75.2,63.3,66,29.98,10.0,South,6.9,-,N/A,,Clear,170,2013-05-31 02:15:00
10:34 PM,74.5,62.4,66,29.99,10.0,South,10.4,-,N/A,,Scattered Clouds,180,2013-05-31 02:34:00
10:55 PM,74.5,62.1,65,29.99,10.0,South,6.9,-,N/A,,Scattered Clouds,180,2013-05-31 02:55:00
11:15 PM,74.3,62.2,66,29.98,10.0,South,6.9,-,N/A,,Clear,170,2013-05-31 03:15:00
11:34 PM,74.1,62.6,67,29.99,10.0,South,8.1,-,N/A,,Clear,180,2013-05-31 03:34:00
11:55 PM,74.8,62.8,66,29.99,10.0,South,9.2,-,N/A,,Clear,180,2013-05-31 03:55:00